sat.trackr.live / text

‹ back to catalog

STARLINK-37452

NORAD 68840 · 2026-094B

PAYLOAD ACTIVE UNKNOWN

§ Identity

Operator
Country
US
Launch date
2026-04-26
Launch site
AFWTR
Launch vehicle
Mass (kg)
RCS (m²)

Purposes: comms

External: N2YO · Heavens-Above · Gunter

§ Orbital elements

Epoch: 2026-05-25T04:00:03.998880Z

Period
92.95 min
Inclination
97.2854°
Eccentricity
0.0000912
Mean motion
15.49179030 rev/d
Perigee alt
418.5 km
Apogee alt
419.7 km
Semi-major
6,797.3 km
B*
-1.7576e-4
RAAN
159.7827°
Arg perigee
118.9269°
Mean anomaly
118.3987°
Rev number
560

§ Raw data

STARLINK-374521 68840U 26094B   26145.16671295 -.00009634  00000+0 -17576-3 0  99942 68840  97.2854 159.7827 0000912 118.9269 118.3987 15.49179030  5607

JSON: /api/v1/satellites/68840 · /tle

For live sub-satellite position, see the globe view (requires WebGL).

§ Visibility from observer

Set your observer location to see the next 7 days of passes ≥ 10°. The values pass through the URL so the page stays shareable.

No JS? Fill the form by hand. The geolocation button needs JavaScript.